#timestamp,LO_Frequency,Hit,StdDev 
1674680415.4,286047002.6,N
1674680435.3,286047003.7,N
1674680455.1,286047001.4,N
1674680475.8,286047003.8,N
1674680495.7,286047003.4,N
1674680515.5,286047005.3,N
1674680535.4,286047002.0,N
1674680555.2,286047000.2,N
1674680575.0,286047001.6,N
1674680575.9,286047001.6,N
1674680595.8,286047001.6,N
1674680615.6,286047003.8,N
1674680635.5,286047002.7,N
1674680655.3,286047001.4,N
1674680675.1,286047001.3,N
1674680695.9,286047004.4,N
1674680715.7,286047004.2,N
1674680735.6,286047004.8,N
1674680755.4,286047007.1,Y
1674680805.3,286047001.8,E
1674680815.2,286047002.5,N
1674680835.0,286046998.5,P
1674680835.9,286046998.5,N
1674680855.8,286046999.7,N
1674680875.6,286046999.7,N
1674680895.4,286047002.6,N
1674680915.3,286046998.3,N
1674680935.1,286046999.4,N
1674680955.9,286046999.4,N
1674680975.7,286046999.8,N
1674680995.5,286046998.6,N
1674681015.4,286046998.6,N
1674681035.2,286047001.2,N
1674681055.0,286046999.5,N
1674681055.9,286046999.5,N
1674681075.8,286046996.5,N
1674681095.6,286046996.6,N
1674681115.5,286046996.8,N
1674681135.3,286046996.2,N
1674681155.1,286046996.3,N
1674681175.9,286046996.0,N
1674681195.7,286046995.0,N
1674681215.5,286046995.7,N
1674681235.4,286046997.7,N
1674681255.2,286046999.3,N
1674681275.1,286046997.1,N
1674681276.0,286046997.1,N
1674681295.8,286046998.0,N
1674681315.6,286046996.5,N
1674681335.5,286046999.0,N
1674681355.3,286047000.7,N
1674681375.2,286046997.1,N
1674681395.9,286046997.7,N
1674681415.7,286046997.6,N
1674681435.6,286046997.0,N
1674681455.4,286046996.8,N
1674681475.3,286046997.8,N
1674681495.1,286046999.1,N
1674681496.0,286046999.1,N
1674681515.8,286046999.7,N
1674681535.7,286047001.6,N
1674681555.5,286047000.6,N
1674681575.3,286046997.9,N
1674681595.2,286046997.5,N
1674681615.0,286046999.6,N
1674681615.9,286046999.6,N
1674681635.8,286046996.9,N
1674681655.6,286046997.9,N
1674681675.4,286046997.5,N
1674681695.3,286046996.1,N
1674681715.1,286046993.6,Y
1674681735.9,286046996.9,P
1674681755.7,286046998.4,P
1674681775.6,286046999.5,N
1674681795.4,286046998.9,N
1674681815.2,286046998.9,N
1674681835.1,286046997.4,Y
1674681836.0,286046997.4,P
1674681855.8,286046998.7,N
1674681875.6,286047000.6,N
1674681895.5,286047002.3,N
1674681915.3,286047000.0,N
1674681935.2,286046999.7,N
1674681955.9,286047004.3,N
1674681975.7,286047004.5,N
1674681995.6,286047004.9,N
1674682015.4,286047003.1,N
1674682035.3,286047006.0,N
1674682055.1,286047005.1,N
1674682056.0,286047005.1,N
1674682075.8,286047005.0,N
1674682095.7,286047006.0,N
1674682115.5,286047001.6,N
1674682135.3,286047004.0,N
1674682155.2,286047005.6,N
1674682175.0,286047005.4,N
1674682175.9,286047005.4,N
1674682195.8,286047003.1,N
1674682215.6,286047003.5,N
1674682235.5,286047003.6,N
1674682255.3,286047003.3,N
1674682275.1,286047003.2,N
1674682295.9,286047001.5,N
1674682315.7,286047001.7,N
1674682335.6,286047001.7,N
1674682355.4,286047003.1,N
1674682375.2,286047000.1,N
1674682395.1,286047000.8,N
1674682396.0,286047000.8,N
1674682415.8,286047000.5,N
1674682435.6,286047002.3,N
1674682455.5,286047000.5,N
1674682475.3,286047001.6,N
1674682495.2,286047002.4,N
1674682515.9,286047004.3,N
1674682535.7,286047004.2,N
1674682555.6,286047005.3,N
1674682575.4,286047003.8,N
1674682595.2,286047004.0,N
1674682615.1,286047002.7,N
1674682616.0,286047002.7,N
1674682635.8,286046999.8,N
1674682655.7,286047000.0,N
1674682675.5,286046999.9,N
1674682695.3,286047001.8,N
1674682715.2,286047002.0,N
1674682735.0,286047002.2,N
1674682735.9,286047002.2,N
1674682755.7,286047004.3,N
1674682775.6,286047002.1,N
1674682795.4,286047002.1,N
1674682815.3,286047001.5,N
1674682835.1,286047001.4,N
1674682855.8,286047001.0,N
1674682875.7,286046998.6,N
1674682895.5,286046999.6,N
1674682915.3,286047000.7,N
1674682935.2,286047002.3,N
1674682955.0,286047005.7,Y
1674682955.9,286047005.7,P
1674682975.8,286047001.5,N
1674682995.6,286047000.2,N
1674683015.4,286047000.5,N
1674683035.3,286047002.3,N
1674683055.1,286047001.4,N
1674683075.9,286047001.6,N
1674683095.7,286046998.2,N
1674683115.5,286046998.1,N
1674683135.4,286046998.6,N
1674683155.2,286047000.1,N
1674683175.0,286047002.3,N
1674683175.9,286047002.3,N
1674683195.8,286046998.1,N
1674683215.6,286046997.5,N
1674683235.5,286046999.2,N
1674683255.3,286046998.2,N
1674683275.1,286047004.3,N
1674683295.9,286047002.5,N
1674683315.7,286046998.3,N
1674683335.6,286047000.9,N
1674683355.4,286046999.7,N
1674683375.2,286047001.7,N
1674683395.1,286047004.4,N
1674683396.0,286047004.4,N
1674683415.8,286047003.0,N
1674683435.6,286047004.1,N
1674683455.5,286047003.0,N
1674683475.3,286047003.4,N
1674683495.2,286047003.2,N
1674683515.9,286047004.0,N
1674683535.7,286047005.7,N
1674683555.6,286047003.8,N
1674683575.4,286046999.7,N
1674683595.2,286047000.3,N
1674683615.1,286046999.8,N
1674683616.0,286046999.8,N
1674683635.8,286046999.7,N
1674683655.7,286047003.5,N
1674683675.5,286047003.3,N
1674683695.4,286047003.6,N
1674683715.2,286047004.0,N
1674683735.0,286047004.8,N
1674683735.9,286047004.8,N
1674683755.8,286047006.2,N
1674683775.6,286047006.9,Y
1674683795.5,286047003.2,P
1674683815.3,286047003.8,P
1674683835.1,286047004.3,P
1674683855.9,286047002.0,N
1674683875.7,286047001.8,N
1674683895.5,286047002.3,N
1674683915.4,286047002.6,N
1674683935.2,286047002.6,Y
1674683955.1,286046999.2,P
1674683956.0,286046999.2,N
1674683975.8,286046998.8,N
1674683995.6,286046995.0,Y
